Wetbulb
38.46 39.81 40.09 39.49 39.27 39.60 38.23 38.14 33.77 37.04 36.09 39.76 42.67 44.24 45.40 45.96 45.89 45.13 45.52 47.14 48.60 49.28 49.99 53.15 55.16 55.80 56.15 56.17 56.21 56.25 56.03 56.19 56.20 56.95 57.76 58.20 57.25 55.65 52.29 51.55 50.79 50.34 48.57 47.19
34.68 39.01 39.13 37.42 39.89 40.04 39.07 39.26 39.07 39.09 37.25 44.36 45.98 44.96 45.02 46.23 47.02 45.52 46.18 46.81 49.48 50.35 53.32 53.32 53.72 54.32 54.75 55.75 56.35 56.91 56.86 56.69 56.86 55.07 55.11 54.91 53.10 50.63 50.55 49.35 47.85 46.96 46.42 45.28
30.08 36.00 36.42 32.30 37.04 38.99 40.26 40.92 40.07 35.86 40.24 44.59 43.78 44.53 44.90 46.71 46.85 46.93 45.97 47.90 48.09 51.28 54.24 54.18 53.68 54.11 55.07 55.80 55.83 56.33 55.77 53.25 53.21 52.90 51.33 50.09 49.63 48.73 47.63 46.82 46.02 45.14 44.99 43.62
31.40 32.81 27.04 37.36 42.34 42.77 40.29 41.82 42.39 41.88 43.18 45.02 45.18 46.45 47.31 45.95 46.31 46.11 46.16 46.38 47.56 51.88 54.01 52.91 51.16 54.30 53.85 53.96 54.16 53.12 51.87 51.43 50.60 50.32 49.22 48.22 47.84 46.44 44.94 44.87 44.02 43.12 42.56 43.08
27.70 29.06 34.11 35.75 40.38 39.30 38.54 39.16 43.29 41.87 43.14 44.11 43.95 41.45 42.41 45.84 45.40 47.58 47.46 48.48 48.54 52.66 53.51 50.57 51.60 52.19 53.03 52.56 52.22 51.50 50.22 49.81 49.10 48.67 47.16 45.98 45.33 44.21 43.94 44.15 43.75 42.61 42.50 41.15
31.17 26.94 24.09 33.38 40.54 43.37 44.07 34.46 43.36 46.08 44.69 41.85 42.37 36.31 39.64 45.40 46.07 45.74 45.99 48.22 50.85 51.19 50.72 49.97 49.53 51.34 51.27 50.80 50.80 50.42 49.60 48.91 48.15 47.48 46.20 45.07 44.42 42.99 42.93 42.79 41.43 39.41 36.01 36.35
30.69 29.67 30.87 38.84 42.14 45.22 34.00 34.30 44.77 46.06 44.08 44.22 41.57 42.55 45.35 44.97 47.33 47.51 48.47 51.03 50.94 50.64 50.25 49.60 49.42 49.62 49.16 49.66 49.43 49.74 49.57 48.46 47.05 46.52 45.49 44.63 43.13 41.90 41.54 40.69 35.79 32.55 29.98 31.16
31.97 29.26 23.55 43.42 43.06 39.25 41.40 44.20 44.72 46.05 45.04 44.97 45.50 45.74 45.91 46.44 46.30 49.01 50.22 50.66 50.70 49.80 48.42 48.47 48.77 48.87 46.75 46.91 46.45 47.25 46.65 45.31 44.92 44.55 44.06 43.16 40.51 38.97 37.85 35.25 30.99 29.45 27.38 27.79
31.84 32.40 40.64 42.31 43.01 45.10 46.35 46.23 46.58 46.74 46.80 45.58 46.24 46.03 45.32 45.75 46.48 48.31 48.28 49.11 49.92 48.29 47.00 47.34 48.05 47.90 45.62 42.95 44.26 43.96 44.02 43.69 43.36 43.10 42.08 40.35 37.81 34.65 33.00 31.79 31.47 28.88 27.69 26.10
35.06 38.38 40.78 42.70 44.74 47.72 48.56 47.55 48.38 48.55 47.57 46.00 44.57 45.51 45.87 45.95 46.81 46.97 46.90 46.27 45.89 46.57 45.64 43.77 44.45 44.65 43.89 43.81 43.67 42.64 41.58 40.66 39.01 36.19 34.37 35.31 34.58 33.35 30.41 29.77 29.40 27.90 26.03 23.84
35.90 39.87 42.08 43.98 45.08 45.57 46.54 47.67 48.04 48.33 48.40 47.63 45.57 45.93 46.14 46.40 46.74 46.53 46.17 45.62 46.21 45.30 44.38 42.56 43.18 42.89 43.20 43.02 41.73 38.72 37.73 35.54 33.44 32.25 29.83 28.10 28.32 29.42 28.39 28.96 30.52 27.93 26.43 24.85
31.23 39.97 39.64 42.57 45.66 45.48 45.47 46.28 46.46 47.09 47.01 48.08 46.61 46.26 46.23 46.67 45.84 45.67 44.96 45.08 43.37 42.66 41.89 41.25 41.29 40.98 41.32 41.45 38.78 35.55 31.61 31.74 30.98 29.20 28.38 27.87 26.68 25.78 29.45 29.37 29.86 29.31 28.18 25.83
38.14 40.28 40.62 44.12 44.25 44.40 44.93 45.57 46.39 46.36 45.69 45.62 46.59 47.76 49.10 45.65 44.68 41.62 43.34 42.65 41.21 39.26 38.32 37.21 35.86 34.58 35.45 35.80 35.25 33.30 29.59 29.17 28.59 27.51 26.62 25.81 25.72 24.68 22.40 25.76 27.77 27.75 27.48 26.91
39.65 40.71 41.02 41.44 41.45 43.26 43.12 43.61 44.48 44.05 42.70 40.32 41.27 44.27 43.68 42.40 39.68 36.98 34.37 33.85 33.07 31.63 30.67 30.32 30.09 30.02 32.02 32.27 31.27 29.95 29.27 28.96 27.84 27.03 26.51 25.95 25.33 25.11 24.80 23.64 22.22 22.97 26.06 25.45
37.44 39.97 40.06 41.99 39.75 39.21 41.28 41.70 39.67 36.21 34.73 32.55 32.80 34.40 34.03 30.81 29.05 28.91 29.38 29.12 28.24 27.81 27.77 27.95 27.44 27.67 29.25 29.21 28.47 27.94 27.41 26.97 27.12 27.04 27.03 26.52 26.52 26.00 25.34 24.58 23.95 23.48 24.09 24.31
36.35 38.56 37.55 38.30 37.46 35.91 35.14 34.10 32.75 30.30 29.43 28.18 27.28 26.35 25.76 25.08 25.16 25.18 25.31 26.46 26.86 24.26 25.82 26.06 27.03 28.26 29.07 28.71 28.31 28.13 27.50 27.21 27.00 26.34 25.88 25.53 25.39 24.84 24.65 24.29 23.95 23.45 22.91 21.20
32.56 33.89 33.95 34.19 34.36 32.27 30.11 30.17 29.05 27.46 27.02 25.95 25.55 25.04 24.54 24.16 24.08 23.70 24.05 25.02 24.95 24.73 25.49 25.18 24.95 26.58 27.05 27.17 26.44 25.76 25.21 25.03 24.80 24.30 23.57 22.90 22.58 22.21 22.23 21.59 21.06 20.52 18.76 19.15
32.27 31.74 31.65 31.50 30.91 29.15 27.43 26.93 26.45 25.91 24.74 24.19 23.71 22.93 22.07 21.74 21.03 21.28 21.47 21.64 21.23 20.92 21.97 22.99 23.87 24.03 24.21 24.43 24.37 23.76 23.12 22.81 21.88 20.85 20.39 19.59 19.93 20.22 19.49 19.00 18.82 17.53 17.25 17.15
27.63 26.98 26.95 26.87 26.84 26.30 25.75 25.12 24.83 24.69 23.90 22.91 21.00 19.88 20.13 19.90 19.82 19.61 19.90 18.59 17.75 16.91 18.54 21.48 23.09 22.15 21.99 22.40 22.18 21.65 20.82 19.93 19.35 18.96 18.61 17.77 17.86 17.63 16.82 16.54 16.18 16.04 15.96 15.82
24.16 24.82 24.49 23.98 24.58 24.07 22.74 23.27 23.30 22.45 22.57 21.27 20.07 18.80 17.43 17.69 18.00 17.42 16.99 15.31 16.65 17.91 19.49 20.02 20.42 19.91 19.76 19.91 20.20 19.15 18.23 17.59 17.06 16.16 16.03 15.79 15.22 14.55 14.89 14.45 14.13 13.13 12.66 11.91
22.00 22.31 22.23 22.13 21.79 22.31 21.63 21.48 20.24 18.70 19.18 19.58 18.20 17.26 17.11 18.06 18.18 17.20 14.92 13.01 15.99 18.02 18.51 19.19 19.45 18.93 19.19 18.82 18.14 16.95 16.07 15.22 14.70 13.67 13.16 12.37 12.19 11.62 10.58 10.28 9.67 7.77 6.55 6.74
22.18 21.61 20.94 21.16 20.38 20.32 21.29 21.44 21.01 20.11 19.40 19.03 18.69 18.10 16.53 15.30 14.84 14.12 15.13 13.93 15.92 16.70 17.38 17.24 16.50 15.92 15.64 15.65 14.87 13.75 13.27 12.29 11.22 10.51 8.87 8.03 6.10 4.21 2.35 1.66 1.88 3.83 1.90 -0.99
22.41 22.02 21.38 20.27 19.25 19.43 20.14 19.83 19.40 19.16 18.13 17.78 16.72 16.16 16.26 16.48 16.24 12.97 10.98 15.42 15.90 15.50 15.04 14.04 13.14 12.45 11.96 11.38 10.56 9.51 8.25 6.91 6.13 4.50 3.44 1.91 0.68 -0.88 -0.85 -1.54 -2.44 -4.58 -8.21 -4.77
20.56 21.61 21.11 21.39 20.66 19.25 17.30 18.75 19.28 19.21 18.52 18.28 17.44 17.82 16.05 13.26 13.48 14.96 14.63 13.58 12.11 11.16 10.45 9.54 9.13 9.07 8.18 7.24 6.20 5.37 4.33 2.44 -0.18 -1.24 -1.61 -4.77 -7.48 -8.21 -7.84 -12.56 -12.56 -16.00 -13.10 -8.93
17.96 18.35 18.80 18.60 18.22 17.53 18.15 18.02 16.70 15.88 15.55 16.00 16.34 16.78 16.53 16.03 12.77 13.48 12.83 11.62 11.55 8.64 6.72 5.92 5.64 4.35 2.83 1.47 -0.41 -1.71 -2.77 -3.67 -5.49 -6.39 -10.56 -16.18 -18.36 -19.63 -19.08 -17.63 -18.00 -16.18 -16.36 -16.73
16.17 15.01 14.82 15.51 15.67 16.25 15.52 14.40 11.83 12.68 12.35 10.45 10.84 11.69 11.69 11.72 10.77 9.44 7.77 6.80 6.33 4.41 2.87 0.93 -0.11 -0.68 -2.69 -4.08 -6.57 -8.02 -7.30 -6.31 -11.29 -14.55 -18.72 -19.26 -19.08 -18.72 -20.17 -19.26 -21.26 -21.26 -22.89 -23.80
13.99 14.34 13.58 12.65 12.95 12.28 11.37 9.96 7.95 6.64 6.39 5.20 4.68 8.21 8.04 6.35 4.34 3.58 0.50 -0.55 -2.39 -3.97 -6.46 -8.64 -8.88 -7.57 -8.58 -12.56 -11.83 -14.91 -15.10 -16.00 -17.27 -17.45 -22.71 -21.80 -21.80 -23.62 -23.43 -23.98 -25.25 -26.34 -26.52 -24.34
MSLP
1006.27 1005.21 1003.96 1002.86 1002.12 1002.01 1002.03 1002.15 1002.35 1002.19 1001.93 1001.80 1001.40 1000.91 1000.61 1000.29 1000.87 1001.22 1000.96 1001.26 1001.70 1001.82 1002.12 1002.46 1003.01 1003.53 1004.09 1004.58 1005.58 1006.34 1007.16 1007.90 1008.27 1008.97 1009.38 1009.78 1010.04 1010.61 1011.41 1012.09 1013.01 1013.71 1014.33 1014.93
1007.23 1005.41 1004.18 1003.06 1001.96 1001.17 1000.89 1000.99 1001.01 1001.19 1000.80 1000.32 1000.02 999.93 1000.06 999.92 999.98 1000.37 1000.35 1000.43 1000.94 1001.28 1001.53 1001.91 1002.27 1002.64 1003.10 1003.71 1004.31 1005.21 1006.19 1006.79 1007.48 1008.17 1008.68 1009.24 1009.82 1010.56 1011.23 1011.93 1012.59 1013.45 1014.11 1014.48
1008.27 1006.62 1005.18 1003.40 1000.44 1000.99 1000.66 1000.24 1000.20 1000.40 1000.12 999.66 999.69 999.58 999.53 999.18 999.28 999.40 999.55 999.67 1000.32 1000.60 1001.02 1001.28 1001.63 1001.92 1002.46 1003.12 1003.91 1004.81 1005.74 1006.75 1007.48 1007.95 1008.55 1009.07 1009.78 1010.49 1011.03 1011.72 1012.51 1013.20 1014.18 1014.70
1008.46 1007.15 1006.07 1002.86 1001.43 1000.29 1000.04 999.55 999.51 999.68 999.23 998.97 998.68 998.47 998.40 998.39 998.59 998.63 998.57 998.91 999.24 999.60 1000.39 1001.14 1001.67 1002.28 1002.93 1003.55 1004.32 1005.09 1005.93 1006.85 1007.52 1008.26 1008.89 1009.60 1010.18 1010.59 1011.15 1011.89 1012.49 1013.41 1014.14 1014.79
1008.93 1007.52 1005.54 1003.83 1001.82 1000.84 1000.09 998.85 998.74 998.80 998.84 998.38 998.22 998.35 998.14 997.71 997.70 997.53 997.36 997.43 997.98 998.42 999.34 1000.63 1001.75 1002.38 1003.22 1003.74 1004.44 1005.09 1005.81 1006.60 1007.43 1008.24 1009.12 1009.67 1010.08 1010.69 1011.43 1012.09 1012.99 1013.73 1014.53 1015.32
1008.92 1007.95 1005.92 1002.50 1001.60 1001.03 1001.06 998.89 998.04 997.86 998.22 998.54 998.61 998.42 998.49 997.40 997.26 997.15 996.93 997.34 998.01 998.93 999.63 1000.59 1001.76 1002.46 1003.19 1003.83 1004.48 1005.00 1005.69 1006.49 1007.41 1008.10 1008.72 1009.46 1010.26 1011.03 1011.75 1012.40 1013.23 1014.31 1015.26 1016.03
1008.16 1007.35 1005.02 1003.07 1001.89 1001.39 1002.22 1000.10 998.68 998.07 997.78 998.01 998.69 997.93 997.68 997.45 997.28 997.28 997.32 997.65 997.95 998.93 999.68 1000.48 1001.52 1002.51 1003.40 1004.10 1004.57 1005.09 1005.86 1006.71 1007.43 1007.99 1008.59 1009.42 1010.35 1011.15 1012.05 1013.12 1014.35 1015.38 1016.37 1017.38
1007.72 1006.72 1004.69 1002.79 1002.18 1002.47 1002.66 1000.49 999.77 998.96 998.73 998.53 998.54 997.85 997.93 997.73 997.82 997.85 997.78 998.23 998.59 999.33 1000.13 1000.96 1001.71 1002.35 1003.38 1004.30 1004.92 1005.55 1006.28 1007.00 1007.63 1008.29 1008.98 1009.76 1010.75 1011.87 1012.87 1013.78 1015.03 1016.31 1017.28 1018.24
1006.19 1004.36 1002.61 1001.94 1001.39 1000.75 1002.11 1001.08 999.91 999.27 999.02 998.89 998.49 998.09 998.23 998.29 998.13 998.78 998.71 998.65 999.03 999.70 1000.69 1001.57 1002.19 1002.60 1003.58 1004.55 1005.19 1006.07 1006.93 1007.70 1008.34 1009.05 1009.72 1010.37 1011.32 1012.60 1013.82 1014.80 1015.79 1016.99 1017.79 1018.86
1005.36 1003.24 1002.26 1001.07 1000.46 1000.14 999.88 1000.01 998.90 999.22 999.15 999.07 999.18 999.08 998.66 998.48 998.45 998.98 999.99 999.71 999.72 1000.40 1001.41 1002.20 1002.69 1003.18 1003.88 1004.77 1005.48 1006.48 1007.59 1008.49 1009.11 1009.85 1010.70 1011.53 1012.39 1013.24 1014.32 1015.40 1016.32 1017.20 1018.24 1019.31
1004.24 1003.12 1002.20 1001.11 1000.25 999.50 999.22 999.09 998.93 998.75 998.39 998.91 998.77 998.72 998.74 998.88 998.95 999.32 1000.00 1000.64 1000.97 1001.29 1001.92 1002.61 1003.15 1003.94 1004.55 1005.17 1005.73 1007.06 1008.24 1009.19 1009.96 1010.76 1011.63 1012.68 1013.68 1014.51 1015.15 1015.89 1016.08 1016.84 1018.03 1018.97
1005.10 1004.11 1003.51 1000.98 999.70 999.15 999.38 999.11 998.89 998.92 998.86 998.81 998.73 998.67 998.73 999.21 999.31 999.80 1000.05 1000.88 1001.59 1002.53 1002.91 1003.30 1003.92 1004.85 1005.45 1005.96 1006.30 1007.25 1008.88 1010.04 1010.93 1011.68 1012.62 1013.39 1014.32 1015.68 1016.29 1016.51 1016.85 1017.52 1018.24 1018.91
1005.91 1004.83 1003.93 1002.48 1001.11 1000.66 999.95 999.39 999.46 999.42 999.51 999.58 999.31 998.76 999.18 999.73 1000.09 1000.74 1000.83 1001.53 1002.50 1003.45 1004.16 1004.52 1005.00 1005.55 1005.95 1006.62 1007.35 1008.28 1009.27 1010.40 1011.53 1012.37 1013.17 1013.92 1014.84 1015.66 1016.72 1017.97 1018.05 1018.42 1018.91 1019.50
1006.13 1005.76 1003.78 1002.63 1002.54 1001.73 1001.04 1000.86 1000.85 1000.82 1000.84 1001.09 1000.89 1000.28 1000.11 1000.87 1001.48 1002.86 1003.70 1003.93 1004.16 1004.67 1005.51 1006.09 1006.74 1007.58 1008.04 1006.94 1008.24 1009.28 1010.24 1010.92 1011.82 1012.76 1013.72 1014.51 1015.25 1016.04 1016.78 1017.58 1018.55 1019.43 1019.88 1020.21
1006.83 1006.43 1005.65 1004.70 1003.95 1003.43 1002.89 1002.38 1002.55 1003.35 1003.66 1003.68 1003.46 1003.14 1003.11 1003.39 1004.17 1005.25 1005.61 1005.75 1006.12 1006.71 1007.47 1008.02 1008.45 1009.26 1009.33 1009.38 1009.87 1010.75 1011.47 1012.49 1013.36 1014.21 1015.07 1015.90 1016.48 1016.96 1017.45 1018.01 1018.60 1019.20 1019.81 1020.35
1007.49 1006.95 1006.52 1005.85 1005.74 1005.34 1005.09 1005.16 1005.46 1005.97 1005.78 1005.84 1005.68 1005.95 1006.26 1006.34 1006.92 1007.27 1007.43 1007.66 1007.95 1009.28 1009.88 1010.04 1010.46 1011.10 1011.03 1011.30 1011.53 1012.45 1013.29 1014.11 1014.66 1015.35 1016.11 1016.76 1017.36 1017.77 1018.24 1018.61 1019.04 1019.45 1019.82 1020.31
1008.56 1008.11 1007.84 1007.42 1007.12 1006.96 1007.00 1007.54 1007.87 1008.04 1008.08 1007.91 1008.40 1008.46 1008.36 1008.12 1008.53 1009.43 1010.06 1010.49 1010.74 1011.30 1011.80 1011.73 1012.42 1012.83 1012.68 1013.00 1013.21 1014.04 1014.90 1015.58 1016.23 1016.91 1017.48 1017.98 1018.38 1018.74 1018.99 1019.37 1019.85 1020.24 1020.67 1020.97
1009.88 1009.54 1009.31 1009.17 1008.95 1008.59 1008.61 1009.29 1009.62 1009.69 1009.96 1010.06 1009.98 1010.33 1010.21 1010.60 1010.96 1011.73 1012.30 1012.64 1012.84 1013.18 1013.71 1013.98 1014.13 1014.33 1014.62 1014.87 1015.22 1015.77 1016.25 1016.79 1017.48 1018.16 1018.73 1019.16 1019.50 1019.83 1020.04 1020.27 1020.72 1021.13 1021.52 1021.74
1011.09 1010.80 1010.72 1010.34 1010.15 1010.29 1010.16 1010.73 1011.14 1011.24 1011.60 1011.97 1011.47 1011.78 1012.38 1012.87 1012.86 1013.40 1014.06 1014.26 1014.75 1015.17 1016.18 1016.02 1016.08 1016.29 1016.62 1016.94 1017.03 1017.40 1017.85 1018.39 1019.06 1019.66 1020.08 1020.36 1020.58 1020.84 1021.14 1021.36 1021.75 1022.06 1022.24 1022.39
1012.42 1011.97 1011.95 1011.89 1011.80 1011.69 1012.02 1012.57 1012.49 1012.62 1013.15 1012.97 1013.27 1013.45 1014.09 1014.79 1015.19 1015.40 1015.78 1016.52 1017.31 1017.68 1017.89 1017.88 1017.89 1018.12 1018.58 1018.80 1018.85 1019.19 1019.61 1020.05 1020.52 1020.97 1021.23 1021.44 1021.70 1022.02 1022.27 1022.58 1022.87 1023.03 1023.09 1023.26
1013.51 1013.15 1013.30 1013.40 1013.44 1013.71 1013.74 1013.86 1014.02 1014.12 1014.50 1014.75 1014.83 1015.22 1015.80 1016.56 1016.87 1017.29 1017.53 1018.13 1019.40 1019.35 1019.34 1019.28 1019.34 1019.78 1020.13 1020.33 1020.49 1020.79 1021.15 1021.46 1021.76 1022.08 1022.36 1022.68 1022.95 1023.29 1023.65 1023.84 1023.88 1023.87 1024.06 1024.15
1014.86 1014.76 1014.91 1014.93 1015.08 1015.19 1015.38 1015.58 1015.51 1015.68 1016.01 1016.49 1016.68 1017.09 1017.47 1018.20 1018.71 1019.08 1019.73 1020.19 1020.83 1020.72 1020.66 1020.84 1021.21 1021.51 1021.75 1021.89 1022.03 1022.24 1022.54 1022.82 1023.12 1023.42 1023.77 1024.08 1024.40 1024.73 1024.97 1025.07 1025.11 1024.95 1024.92 1024.94
1016.14 1016.38 1016.48 1016.49 1016.61 1016.93 1016.66 1016.73 1016.91 1016.97 1017.60 1018.15 1018.53 1019.12 1019.06 1019.59 1020.19 1020.50 1021.11 1022.02 1022.02 1022.17 1022.30 1022.60 1022.79 1022.87 1023.01 1023.17 1023.39 1023.65 1023.97 1024.29 1024.66 1024.99 1025.25 1025.47 1025.68 1025.86 1025.97 1026.04 1026.06 1026.00 1025.97 1026.03
1017.96 1018.01 1018.06 1018.10 1017.97 1017.58 1017.65 1018.28 1018.35 1019.03 1019.53 1020.28 1020.67 1020.75 1020.78 1021.27 1021.99 1022.49 1022.85 1023.30 1023.57 1023.67 1023.87 1024.10 1024.15 1024.19 1024.40 1024.71 1024.92 1025.12 1025.42 1025.77 1026.04 1026.22 1026.40 1026.55 1026.72 1026.82 1026.95 1027.02 1027.05 1027.01 1026.98 1026.94
1019.60 1019.63 1019.66 1019.48 1019.27 1019.54 1019.85 1020.07 1020.30 1021.14 1021.54 1021.80 1022.06 1022.17 1022.38 1022.79 1022.94 1023.89 1024.21 1024.69 1024.94 1025.12 1025.45 1025.63 1025.68 1025.81 1026.02 1026.24 1026.35 1026.53 1026.78 1027.00 1027.19 1027.30 1027.46 1027.61 1027.79 1027.95 1028.06 1028.06 1028.04 1028.00 1027.89 1027.72
1021.20 1021.30 1021.33 1021.29 1021.39 1021.44 1021.63 1021.85 1022.31 1022.96 1023.21 1023.52 1023.95 1024.24 1024.46 1024.70 1024.97 1025.37 1025.87 1026.18 1026.42 1026.66 1026.94 1027.15 1027.30 1027.42 1027.50 1027.54 1027.60 1027.79 1028.00 1028.19 1028.30 1028.42 1028.56 1028.66 1028.78 1028.87 1028.88 1028.81 1028.73 1028.54 1028.17 1027.69
1022.61 1022.55 1022.61 1022.82 1023.15 1023.47 1023.78 1024.07 1024.37 1025.01 1025.25 1025.56 1025.96 1026.05 1026.15 1026.44 1026.80 1027.15 1027.49 1027.79 1028.04 1028.30 1028.51 1028.70 1028.83 1028.85 1028.77 1028.72 1028.83 1029.07 1028.92 1028.91 1028.87 1029.00 1029.33 1029.39 1029.36 1029.34 1029.05 1028.80 1028.49 1028.22 1027.84 1027.34
Wind_Speed
12 14 15 14 10 14 18 12 12 10 11 10 10 11 12 10 5 8 9 9 9 10 12 13 14 15 15 16 17 19 20 19 20 16 15 14 12 10 9 10 9 10 10 8
6 9 14 17 18 12 8 7 12 10 7 7 12 7 6 9 9 8 8 8 12 9 7 9 12 13 13 14 18 19 19 19 13 11 10 10 8 9 10 9 10 10 10 9
5 13 12 9 17 14 14 6 7 10 9 8 7 9 11 14 12 12 11 13 10 15 14 11 12 10 13 13 12 15 13 10 10 8 7 7 8 9 10 10 11 9 8 9
4 6 5 7 8 11 15 14 8 5 6 8 9 12 13 8 9 12 11 11 11 13 11 7 6 6 7 9 10 12 11 10 9 9 10 9 10 9 9 9 10 9 9 8
3 3 7 16 8 4 7 17 12 8 9 9 7 1 9 8 10 15 13 14 13 14 9 10 11 9 10 10 10 11 11 11 11 11 10 10 9 9 8 9 8 8 8 9
2 3 7 10 11 13 17 17 7 18 11 5 2 1 6 11 5 11 9 7 9 9 10 13 12 12 11 10 10 10 10 10 11 11 11 10 10 10 8 8 9 8 9 8
4 4 9 8 13 5 5 8 5 5 1 10 6 8 7 7 7 3 3 6 9 11 10 11 13 12 11 10 9 9 10 10 10 10 11 10 10 9 10 10 10 10 10 8
3 4 8 1 5 6 8 7 1 4 6 6 5 8 7 9 8 5 7 7 7 9 9 10 12 12 11 10 8 10 10 10 10 10 8 9 11 10 10 11 11 10 10 8
8 8 5 5 6 16 17 11 3 3 4 6 10 6 7 6 4 5 3 4 5 8 10 8 9 10 11 8 11 10 10 10 9 10 9 10 12 10 9 8 9 8 7 8
3 9 13 16 8 10 11 12 4 5 6 1 4 8 8 7 2 3 3 2 5 9 8 8 6 8 10 11 11 12 11 10 9 10 10 9 7 7 8 7 8 8 8 8
14 14 9 10 9 10 8 7 7 7 7 5 1 6 3 7 6 2 3 3 3 6 7 8 8 9 10 12 14 12 11 10 10 9 11 10 9 6 6 4 6 10 7 8
5 6 7 15 8 4 6 7 9 8 3 6 3 2 5 9 3 4 6 6 7 5 8 9 10 9 8 10 13 14 11 8 8 9 8 9 11 11 18 14 18 16 15 10
6 16 19 19 10 6 7 4 3 1 3 5 7 5 5 5 4 2 6 7 7 8 8 9 10 9 8 8 10 11 12 11 8 9 8 9 9 9 11 12 18 18 17 17
11 17 6 11 9 13 7 8 7 9 11 10 10 7 5 5 11 10 9 9 12 13 13 13 13 12 8 13 14 13 12 14 9 9 8 8 7 8 7 7 7 6 11 12
12 10 8 9 10 13 12 11 13 12 11 11 11 11 12 14 14 13 12 13 15 16 15 14 15 14 12 13 15 14 11 10 10 9 8 8 6 6 5 6 5 5 5 5
14 7 10 9 9 11 12 15 11 10 10 11 12 14 14 16 16 17 17 15 15 15 15 15 16 13 14 14 16 13 12 15 11 8 7 7 5 5 5 4 3 3 3 3
10 7 10 10 10 12 13 11 10 9 9 11 11 11 14 17 19 18 18 17 17 17 15 15 14 12 14 13 14 10 9 10 12 8 7 6 6 5 5 5 4 3 3 3
7 8 9 9 7 7 11 11 10 11 11 12 12 13 16 16 17 16 16 16 18 19 17 15 14 14 14 13 12 9 9 9 8 8 7 6 6 5 5 5 4 4 3 3
11 10 10 11 11 11 12 12 11 12 12 11 15 17 16 15 16 16 15 17 16 16 13 14 18 16 14 14 12 9 9 10 9 7 7 7 6 6 5 5 4 3 2 2
12 13 14 15 15 14 14 12 13 14 12 14 16 17 17 15 15 17 18 19 14 9 12 13 14 14 13 14 13 9 10 9 8 7 6 6 6 6 6 7 5 4 3 4
12 14 15 15 15 14 13 12 13 15 14 15 16 16 16 14 13 13 15 13 12 12 13 15 12 9 8 9 10 9 8 8 8 7 7 6 6 6 6 5 4 3 3 2
10 12 12 14 14 15 14 14 14 15 16 15 15 15 16 16 16 16 14 12 8 12 9 9 10 13 10 12 8 8 8 8 7 6 6 6 6 5 4 4 4 3 3 2
11 12 13 14 15 15 16 16 16 17 17 15 15 14 13 10 8 9 11 9 8 11 10 9 13 14 13 8 8 8 8 8 7 6 6 5 4 4 4 4 4 4 4 3
12 12 12 12 13 15 18 15 16 15 15 15 13 11 10 9 10 9 9 12 14 13 10 9 11 13 11 7 7 6 6 5 4 4 4 5 4 3 4 4 4 3 3 3
12 12 12 11 12 10 12 12 13 13 13 13 14 13 13 9 9 7 8 9 13 10 9 12 12 11 7 6 5 5 5 4 4 4 4 3 3 3 2 2 2 2 3 3
11 8 9 12 10 8 8 8 9 8 8 9 10 8 8 8 9 9 8 9 9 9 7 6 5 5 5 5 5 5 4 4 4 3 3 3 3 2 2 3 3 3 3 3
10 10 8 9 9 9 9 9 8 8 7 6 8 7 8 7 8 8 8 7 6 6 5 4 4 5 4 4 3 3 3 3 4 3 3 2 2 1 2 3 3 3 3 3
Wind_Direction
296 300 262 261 222 219 222 217 209 232 216 227 228 237 233 229 231 261 221 194 202 212 196 200 200 201 200 199 189 193 199 206 213 218 209 196 194 182 161 159 164 162 159 160
287 272 251 254 259 234 233 230 244 253 262 223 226 235 254 241 236 222 242 231 197 207 194 189 194 199 191 186 187 186 192 202 196 177 180 189 168 161 163 158 151 151 157 151
280 342 330 298 247 255 246 201 177 227 223 231 237 236 234 239 231 227 214 222 187 197 202 195 194 185 184 176 164 181 181 173 179 169 162 160 154 157 158 153 144 143 145 134
247 25 251 292 297 239 238 235 213 262 227 226 232 238 244 230 212 227 221 213 213 194 193 175 156 152 124 135 148 153 162 161 152 161 161 165 163 152 134 138 135 134 126 127
219 194 277 312 271 246 215 255 217 214 247 252 271 203 303 248 213 227 217 214 210 209 167 138 152 147 145 142 149 152 161 158 158 158 157 151 142 134 130 127 119 118 118 122
161 207 234 219 261 305 312 258 257 232 230 289 201 354 257 276 264 245 217 175 156 137 132 136 148 151 151 154 156 163 157 153 152 155 153 145 140 135 128 122 121 114 100 95
194 239 277 252 271 349 238 250 353 51 317 172 217 202 238 301 265 240 229 175 137 141 152 150 144 147 153 154 162 145 142 147 150 152 147 140 129 125 126 118 105 94 88 82
170 212 284 176 6 62 298 311 37 19 359 349 297 328 318 304 279 209 167 142 134 133 137 142 148 146 146 154 134 134 136 137 138 137 133 132 121 119 118 117 113 114 113 97
190 214 251 222 212 177 234 275 289 358 327 344 339 347 315 309 358 294 202 128 105 120 121 134 149 147 141 138 134 129 130 135 133 127 122 124 122 118 112 117 126 127 122 116
95 260 252 269 233 229 222 247 172 194 254 255 330 310 315 303 269 168 307 126 109 122 132 134 128 121 134 139 131 125 126 126 117 105 94 92 99 111 122 130 134 136 135 133
253 270 282 271 252 249 252 239 229 233 241 279 126 332 316 300 275 273 84 62 112 137 137 128 119 122 134 136 130 123 121 116 108 104 102 92 74 84 104 87 147 151 148 146
261 319 306 268 232 261 251 244 215 220 230 205 182 339 4 323 293 214 153 143 118 110 114 112 112 113 121 134 132 127 118 115 117 116 113 110 107 89 68 90 100 104 119 132
307 308 285 275 270 336 282 259 229 81 21 326 319 298 230 338 352 111 104 104 102 96 87 91 94 93 92 99 111 118 121 123 115 115 118 121 120 118 113 82 92 103 115 122
351 314 292 24 327 327 17 22 26 30 28 20 348 348 42 47 73 54 49 74 84 84 77 79 73 57 43 98 100 102 103 104 106 109 107 103 102 106 114 125 125 118 117 127
326 329 316 312 7 9 13 16 38 28 14 17 27 43 53 71 71 64 66 72 74 71 68 69 72 63 66 77 82 85 85 82 82 81 79 83 90 95 104 117 123 132 134 130
317 319 345 9 5 19 25 26 40 20 25 31 48 54 68 75 68 63 58 58 71 68 68 71 68 68 73 77 85 82 77 73 74 80 83 86 86 89 92 95 95 102 126 121
339 340 350 356 10 31 38 31 36 47 50 56 55 69 73 77 76 68 64 64 69 68 62 64 65 57 61 65 69 71 74 73 73 68 64 61 64 67 67 65 66 64 62 56
4 21 11 11 19 53 57 53 54 54 60 72 77 75 74 74 81 79 74 72 66 60 52 53 58 59 59 61 68 71 73 74 73 71 68 65 65 63 59 65 64 71 66 75
38 49 44 47 47 53 63 64 67 74 71 73 76 73 73 69 72 72 69 65 63 63 45 53 57 57 58 57 63 65 68 71 70 66 64 61 61 59 57 58 59 57 50 45
57 62 62 61 57 61 69 66 71 72 72 78 78 76 73 68 70 73 71 67 56 61 61 59 62 60 58 55 60 62 64 66 70 67 59 60 58 55 53 51 49 47 46 57
56 59 62 61 61 59 60 62 70 68 66 69 76 76 76 70 67 72 71 70 50 53 57 57 60 62 60 62 63 64 64 65 64 61 58 54 53 51 46 36 31 44 46 36
57 62 63 68 70 67 60 64 67 71 71 71 72 76 79 74 72 70 61 71 60 55 60 61 61 61 61 63 63 64 64 63 63 61 58 57 56 57 48 37 29 15 6 8
60 63 66 67 68 72 69 63 62 63 64 62 63 65 69 69 68 76 77 54 63 63 65 64 64 61 58 57 60 61 59 57 59 61 60 55 53 50 44 31 22 16 22 23
58 62 66 69 72 68 67 61 65 63 66 65 60 64 77 83 76 70 76 70 67 64 62 58 55 56 57 55 56 60 62 62 61 60 66 65 56 49 45 36 35 8 20 17
54 52 53 54 62 62 67 68 69 63 63 64 61 63 70 63 77 77 74 70 68 66 61 51 54 52 51 51 52 55 55 57 56 61 53 57 47 50 43 40 19 338 316 304
59 59 57 52 54 57 58 60 64 55 63 64 52 50 56 58 62 63 61 62 62 61 55 42 45 48 46 51 57 64 65 63 54 45 55 60 62 40 354 330 315 306 296 289
53 51 56 56 47 49 52 56 64 56 47 58 69 46 62 59 59 64 61 56 53 52 47 35 32 36 46 56 58 42 40 41 47 67 58 60 27 313 305 294 292 292 295 296